Home   Weather   Alexandroupoli   Past weeks

Flag for Greece Past Weather in Alexandroupoli, Greece — Yesterday and Last 2 Weeks

Now
54 °F

Sunny.


Feels Like: 54 °F
Forecast: 51 / 79 °F
Wind: No wind

Location: Alexandroupoli Airport

Current Time: Sep 29, 2016 at 9:52:14 AM

Latest Report: Sep 29, 2016 at 8:50 AM


Visibility: 10 mi

Pressure: 30.30 "Hg

Humidity: 77%

Dew Point: 46 °F

Location of AlexandroupoliLocation

Past Weather in Alexandroupoli — Graph

°F

Alexandroupoli Temperature Yesterday

Maximum temperature yesterday: 77 °F (at 2:50 PM)
Minimum temperature yesterday: 46 °F (at 5:50 AM)
Average temperature yesterday: 63 °F

High & Low Weather Summary for the Past Weeks

 TemperatureHumidityPressure
High88 °F (Sep 15, 1:20 PM)93% (Sep 29, 6:50 AM)30.36 "Hg (Sep 29, 6:50 AM)
Low46 °F (Sep 23, 5:50 AM)22% (Sep 24, 4:50 PM)29.62 "Hg (Sep 19, 9:20 PM)
Average69 °F59%30.00 "Hg
* Reported Sep 14 8:20 AM — Sep 29 8:20 AM, Alexandroupoli, Weather by CustomWeather, © 2016

Note: Actual official high and low records may vary slightly from our data, if they occured in-between our weather recording intervals... More about our weather records

Advertising

Alexandroupoli Weather History for the Previous 24 Hours

Scroll right to see more
 ConditionsComfort  
Time TempWeatherWind HumidityBarometerVisibility
8:20 AM
Thu, Sep 29
50 °FSunny.No wind82%30.30 "Hg10 mi
7:50 AM48 °FSunny.No wind82%30.30 "Hg10 mi
7:20 AM46 °FSunny.No wind93%30.30 "Hg10 mi
6:50 AM46 °FClear.No wind93%30.30 "Hg10 mi
6:20 AM46 °FClear.No wind82%30.30 "Hg10 mi
5:50 AM48 °FClear.No wind82%30.30 "Hg10 mi
5:20 AM50 °FClear.No wind71%30.30 "Hg10 mi
4:50 AM54 °FClear.No wind72%30.30 "Hg10 mi
4:20 AM54 °FClear.No wind72%30.30 "Hg10 mi
12:20 AM55 °FClear.No wind72%30.33 "Hg10 mi
11:50 PM
Wed, Sep 28
57 °FClear.No wind67%30.33 "Hg10 mi
11:20 PM57 °FClear.No wind67%30.33 "Hg10 mi
10:50 PM57 °FClear.5 mph67%30.33 "Hg10 mi
10:20 PM59 °FClear.No wind63%30.30 "Hg10 mi
9:50 PM59 °FClear.5 mph63%30.30 "Hg10 mi
9:20 PM61 °FClear.No wind59%30.30 "Hg10 mi
8:50 PM63 °FClear.5 mph56%30.30 "Hg10 mi
8:20 PM64 °FClear.7 mph52%30.30 "Hg10 mi
7:50 PM68 °FClear.2 mph46%30.30 "Hg10 mi
7:20 PM72 °FClear.3 mph50%30.30 "Hg10 mi
6:50 PM73 °FSunny.6 mph47%30.30 "Hg10 mi
6:20 PM73 °FSunny.7 mph41%30.27 "Hg10 mi
5:50 PM75 °FSunny.8 mph39%30.27 "Hg10 mi
5:20 PM75 °FSunny.8 mph31%30.27 "Hg10 mi
4:50 PM75 °FPassing clouds.12 mph31%30.27 "HgN/A
4:20 PM77 °FPassing clouds.13 mph32%30.27 "HgN/A
3:50 PM77 °FPassing clouds.17 mph32%30.27 "HgN/A
3:20 PM77 °FPassing clouds.17 mph30%30.30 "HgN/A
2:50 PM77 °FPassing clouds.13 mph30%30.30 "HgN/A
2:20 PM73 °FPassing clouds.14 mph31%30.33 "HgN/A
1:50 PM73 °FPassing clouds.14 mph31%30.33 "HgN/A
1:20 PM73 °FSunny.12 mph36%30.33 "Hg10 mi
12:50 PM73 °FSunny.12 mph36%30.33 "Hg10 mi
12:20 PM73 °FSunny.12 mph33%30.33 "Hg10 mi
11:50 AM72 °FSunny.12 mph36%30.33 "Hg10 mi
11:20 AM72 °FSunny.10 mph44%30.36 "Hg10 mi
10:50 AM68 °FSunny.6 mph43%30.36 "Hg10 mi
10:20 AM66 °FSunny.5 mph49%30.33 "Hg10 mi
9:50 AM61 °FSunny.6 mph55%30.33 "Hg10 mi
9:20 AM55 °FSunny.3 mph67%30.33 "Hg10 mi
Weather by CustomWeather, © 2016

See weather overviewHow to use our weather pages